User: anonymous   Login
Location: Unspecified
(0.0000°N, 0.0000°E)
Time: 20:41:09
(UTC+00:00)
Language:

NOSS 8 (A) - Orbit

View from above orbital plane
View from above orbital plane
View from above satellite
View from above satellite

Ground track
Ground track

The orbit data is extracted from the following two-line orbital elements,

1 17997U 87043A   17165.90012640 0.00001000  00000-0  12696-3 0    08
2 17997  63.3100  90.6977 0875205  46.6354 313.3645 13.47332124    06
Epoch (UTC): 14 June 2017 21:36:10
Eccentricity: 0.0875205
inclination: 63.3100°
perigee height: 429 km
apogee height: 1735 km
right ascension of ascending node: 90.6977°
argument of perigee: 46.6354°
revolutions per day: 13.47332124
mean anomaly at epoch: 313.3645°
orbit number at epoch: 0

The dashed part of the orbit path shows where the satellite is in the earth's shadow,  

DLR